Wetbulb
66.46 63.15 56.57 55.33 48.91 45.59 41.53 42.89 47.17 48.00 49.50 52.85 52.58 52.61 52.81 53.50 53.34 51.96 63.79 67.44 67.90 70.03 72.85 74.01 74.85 74.34 73.08 72.06 71.29 70.19 69.36 68.55 67.46 67.27 67.78 68.20 68.56 67.05 64.78 65.40 65.60 65.62 65.17 65.35 67.15 68.02 69.25 68.96 68.48
63.93 60.75 55.54 50.65 44.39 40.40 41.89 44.61 46.28 49.24 51.49 52.05 51.97 53.50 53.06 54.31 59.11 60.58 64.09 66.60 69.19 71.48 73.34 73.26 74.56 74.16 72.78 71.82 70.95 69.92 68.98 68.04 67.38 66.42 66.28 66.15 65.61 65.79 65.73 65.61 65.37 65.33 64.61 64.45 64.57 65.43 66.45 66.75 66.70
60.82 55.61 52.56 47.41 42.50 40.13 41.65 44.78 48.63 49.73 50.91 50.90 52.89 54.87 54.53 55.88 59.93 61.36 64.80 67.85 70.39 72.15 73.33 73.17 74.19 74.06 73.10 71.86 70.99 70.05 69.06 68.13 67.15 66.58 66.54 66.68 66.98 66.68 65.96 65.54 65.44 64.95 64.20 63.68 63.76 63.96 64.63 65.06 64.79
57.75 54.96 50.29 44.77 41.63 43.93 44.56 46.95 48.18 49.12 51.86 52.20 53.30 53.55 57.16 59.87 61.27 62.53 66.87 70.35 70.89 72.01 73.15 73.71 74.21 74.25 73.19 72.50 71.14 70.26 69.47 68.61 67.30 66.81 67.18 67.20 66.81 67.32 67.24 66.53 65.94 65.11 64.19 63.72 63.33 63.17 63.19 63.29 63.91
54.15 50.85 44.30 41.99 42.14 44.35 46.62 48.32 49.15 48.79 49.01 49.89 51.54 52.15 55.35 59.96 62.14 65.85 68.65 70.48 69.94 70.44 72.54 73.20 74.44 74.31 73.27 71.94 71.37 70.60 69.98 69.14 67.75 66.94 66.96 67.14 67.18 68.60 67.92 67.31 66.37 65.58 64.46 64.30 63.96 63.49 63.88 64.07 65.22
51.23 48.76 41.43 39.87 41.96 44.84 47.26 49.28 49.40 48.54 49.00 49.40 51.09 52.63 55.66 60.15 62.54 67.08 69.60 70.06 70.61 70.68 71.99 72.80 73.10 73.66 73.37 72.48 71.91 71.23 70.31 69.54 68.06 67.00 67.10 67.41 67.78 68.80 68.46 68.03 66.99 66.10 65.13 64.54 64.70 65.15 65.50 65.57 65.62
49.41 45.51 41.71 40.71 40.45 43.32 46.36 50.14 48.71 48.92 49.22 49.71 53.17 51.87 55.57 58.00 62.71 67.74 68.92 69.75 70.44 71.15 71.48 72.23 72.78 72.82 72.59 72.40 72.00 71.74 70.89 70.16 69.06 67.40 67.92 68.40 68.53 68.75 69.95 68.35 67.17 66.49 65.60 65.47 65.94 66.02 65.68 65.57 65.82
50.39 47.74 41.54 41.92 42.15 43.07 48.62 49.55 51.39 49.48 48.34 52.59 54.23 51.61 53.30 57.53 62.05 66.51 67.65 68.09 68.97 70.42 71.09 71.50 72.57 72.49 72.58 72.08 71.37 71.26 70.94 70.26 69.34 68.35 68.37 67.51 66.14 67.88 69.28 68.09 67.94 66.64 66.11 66.08 66.62 66.55 66.28 66.08 66.31
51.41 45.89 42.08 42.32 41.78 44.96 49.16 48.24 51.68 52.38 50.81 52.03 53.34 53.82 55.12 58.67 60.89 63.17 64.74 66.16 67.04 68.05 70.08 71.03 71.65 72.31 72.38 71.72 71.03 70.75 70.15 69.49 68.19 67.54 67.06 66.41 66.32 65.45 65.67 65.20 66.78 66.90 66.36 66.47 66.86 66.67 66.92 66.98 65.51
50.43 45.44 44.28 47.07 46.49 46.72 48.45 48.75 49.67 50.73 50.14 51.31 52.67 54.84 57.46 59.26 59.62 60.65 61.44 63.26 65.40 66.68 68.29 70.03 70.60 70.92 71.68 71.09 71.27 70.95 70.24 70.04 68.46 66.85 67.54 66.99 66.06 65.39 64.34 63.01 62.98 64.25 65.54 65.19 65.32 64.64 63.59 63.15 64.32
49.65 45.17 47.56 48.74 50.58 51.62 49.94 49.63 51.18 49.50 48.74 51.42 51.82 53.18 54.34 58.37 59.65 59.39 60.75 62.10 63.86 66.00 67.71 69.15 69.47 69.65 70.41 70.47 70.45 70.05 69.69 68.88 67.91 66.73 65.58 65.46 64.64 64.50 64.58 64.32 64.16 64.51 62.66 64.70 63.54 63.67 63.76 62.86 60.37
44.14 47.27 49.00 50.09 51.67 51.03 49.73 51.38 50.70 49.94 51.30 53.00 53.02 53.36 53.47 54.60 54.99 59.38 60.08 60.67 62.29 64.14 66.54 68.46 69.39 68.69 69.18 69.93 69.48 69.53 68.77 68.22 67.00 66.58 65.65 65.08 64.67 64.08 64.08 62.83 62.55 63.06 63.52 63.36 63.61 61.06 55.16 54.15 51.77
43.87 45.26 47.42 48.35 46.93 47.35 49.97 49.08 49.88 50.45 53.47 54.10 54.96 55.02 54.60 54.66 54.42 54.91 57.44 59.95 60.55 60.69 63.12 66.99 68.99 68.30 68.49 68.56 68.26 68.62 68.83 67.89 67.30 66.35 65.85 65.12 64.04 63.20 61.70 62.41 62.94 62.53 61.02 57.81 55.14 53.25 51.49 49.07 49.26
44.40 44.71 44.95 46.13 46.21 46.88 46.30 47.04 48.27 49.94 53.11 53.19 53.15 53.99 54.33 53.49 54.83 55.02 54.62 55.18 55.70 56.89 57.90 62.41 66.89 68.79 68.46 67.60 68.06 68.35 68.89 68.41 67.31 65.91 65.11 64.29 63.79 61.29 61.87 55.91 54.59 53.78 53.15 52.12 52.50 49.94 48.99 47.21 46.77
45.21 41.97 43.31 44.06 45.10 44.63 46.48 42.78 42.99 49.42 51.10 51.00 51.77 52.83 54.08 54.96 55.60 54.20 55.69 55.53 56.29 56.57 56.69 56.98 62.88 67.45 68.07 68.37 68.68 68.53 68.34 67.87 66.51 65.70 65.51 64.67 62.63 61.60 56.02 53.42 51.62 50.67 51.46 48.31 48.09 47.95 46.97 45.81 45.08
41.38 40.81 35.87 41.60 43.58 44.76 45.19 36.89 44.98 48.49 48.31 48.60 49.95 51.47 52.49 54.18 55.48 56.21 55.19 55.05 56.16 55.28 54.87 56.58 60.40 65.18 66.87 67.70 67.91 67.59 67.67 67.55 66.16 64.90 63.87 61.89 58.17 55.87 53.06 50.26 48.37 46.28 47.42 47.37 45.67 45.47 45.53 43.92 43.45
36.81 31.26 34.12 37.42 43.30 43.24 42.89 39.35 45.33 48.08 46.77 46.52 47.85 49.49 50.69 52.27 54.55 55.49 54.72 54.53 55.10 55.05 55.35 56.30 60.30 63.63 65.09 66.53 66.56 66.70 66.14 64.26 61.31 58.00 56.05 55.03 53.94 53.15 49.33 46.61 46.00 45.41 44.63 44.67 44.61 43.31 44.37 42.25 42.63
29.83 31.22 33.32 34.37 38.93 39.65 38.03 38.24 42.23 44.92 45.04 46.13 46.85 47.67 48.85 49.73 51.26 53.70 54.31 54.15 54.11 54.78 55.69 56.82 59.76 62.81 64.12 64.42 61.08 58.92 57.54 56.31 55.89 53.39 51.26 50.12 48.67 47.93 46.08 43.81 43.92 43.90 43.22 42.62 42.86 41.68 42.26 41.30 40.99
34.88 33.68 32.95 36.16 39.22 37.22 36.47 37.23 39.98 43.11 43.45 42.99 44.62 46.12 47.71 48.84 52.02 53.25 53.30 53.66 53.48 53.93 55.51 56.14 59.66 61.80 60.25 58.22 57.00 55.68 53.47 53.24 51.03 48.42 47.29 46.67 45.85 44.94 43.54 43.05 42.26 42.36 41.44 40.46 40.67 41.63 40.41 40.08 40.97
34.28 32.46 32.17 35.17 37.89 36.77 35.73 34.97 38.75 40.71 41.66 43.20 43.78 44.77 46.44 48.51 50.00 52.03 52.37 52.51 52.96 54.01 55.21 56.55 59.04 59.08 58.98 58.83 56.32 54.11 52.46 50.33 49.92 45.80 45.02 45.50 43.82 42.53 42.43 42.03 41.17 41.23 40.47 39.97 39.70 39.95 39.72 39.08 39.86
33.35 32.24 32.16 31.50 35.17 36.81 34.58 32.39 36.20 39.66 41.01 42.25 43.78 45.15 46.43 47.20 48.63 51.12 50.74 51.54 53.78 53.96 54.85 55.96 56.13 56.52 55.89 51.63 50.30 47.90 47.64 46.57 44.83 42.46 41.85 42.80 41.98 41.43 41.27 40.97 40.43 40.32 40.63 38.86 38.56 39.01 38.97 37.41 38.49
30.20 35.63 34.99 33.31 31.77 26.24 34.14 24.71 33.75 37.29 38.29 40.40 41.29 42.74 44.21 45.68 47.54 50.33 50.99 51.07 53.07 55.03 55.62 55.72 54.56 53.48 51.83 51.63 51.06 50.20 49.94 46.96 45.58 41.82 40.66 39.43 40.10 39.66 40.28 39.80 39.72 39.42 39.25 38.58 38.21 37.98 37.94 38.25 35.91
32.70 36.81 34.54 34.11 31.97 30.33 30.78 27.62 32.62 35.09 34.61 37.49 40.21 41.91 42.76 45.42 46.95 48.82 50.60 51.65 53.42 54.88 55.50 54.32 52.79 51.62 50.63 51.47 52.02 51.87 48.44 44.76 41.37 38.91 37.85 36.79 37.79 39.34 38.98 39.02 38.73 38.07 37.96 37.44 37.37 36.82 36.69 36.87 36.43
38.25 34.80 35.21 34.86 33.24 25.12 29.71 28.61 29.48 33.80 36.42 38.50 40.48 42.05 43.48 45.43 47.30 49.57 51.14 51.80 53.10 54.43 53.56 51.86 50.99 49.15 49.42 49.83 48.79 47.41 43.41 40.78 37.86 37.13 36.21 35.90 37.73 37.59 37.58 37.48 37.55 37.52 37.19 36.96 36.58 36.21 35.97 35.54 35.32
35.86 33.38 24.20 21.33 22.78 21.23 29.97 27.96 30.80 36.02 37.71 38.68 39.31 40.58 42.50 45.16 47.01 47.72 48.45 50.69 51.96 52.67 51.50 50.38 49.63 47.23 47.89 47.84 46.55 45.25 42.58 40.54 38.27 37.14 36.70 36.69 36.18 36.06 36.03 36.81 36.58 36.46 36.43 36.18 36.38 36.09 35.72 35.24 34.89
33.33 32.29 24.45 14.63 17.37 21.85 29.25 25.70 31.00 37.48 40.40 41.75 42.14 42.27 43.30 44.26 46.20 46.61 48.71 50.96 51.91 52.17 50.63 50.24 48.44 46.51 47.15 46.44 44.15 42.20 41.26 39.60 38.42 37.07 37.52 37.07 36.40 35.68 35.89 35.78 36.04 35.77 35.69 35.53 35.59 35.61 35.38 34.96 34.55
32.17 29.06 34.04 25.53 26.91 22.82 26.58 30.16 35.48 38.74 38.44 39.41 40.18 41.87 42.13 42.24 45.11 46.59 48.61 50.61 51.60 51.23 50.45 49.06 47.12 45.73 45.15 43.09 40.52 39.63 38.97 38.04 37.40 37.08 36.98 36.23 35.74 35.27 35.40 35.68 35.29 35.18 35.07 34.76 34.59 34.71 34.00 33.94 33.81
33.81 36.08 27.28 27.97 19.96 18.57 23.62 25.00 27.38 32.78 35.52 38.33 40.27 42.33 42.31 42.58 43.58 46.38 48.70 49.89 50.56 50.71 48.57 47.31 45.59 43.30 41.87 40.42 39.26 38.02 37.37 37.03 36.24 36.18 35.21 35.33 35.24 35.13 34.94 34.82 34.84 34.55 34.24 33.91 33.53 33.36 33.28 33.11 33.51
32.08 30.21 32.38 31.44 29.24 21.86 20.37 24.94 33.57 34.68 36.74 38.79 40.65 42.58 42.35 40.82 44.50 46.59 48.13 48.34 47.38 45.83 45.34 43.16 41.42 39.64 38.44 37.81 37.18 36.62 35.52 35.16 35.27 34.68 34.43 34.51 34.67 34.64 34.38 34.26 33.87 33.64 33.15 32.82 32.67 32.26 32.53 31.81 32.18
34.96 32.82 31.82 26.28 25.26 27.56 25.99 25.55 39.21 38.23 39.64 41.07 42.04 43.31 43.48 43.47 45.08 45.71 43.48 42.53 43.31 42.04 41.82 41.66 39.98 37.96 36.59 36.70 35.98 34.81 34.37 34.30 33.96 33.56 33.63 34.34 33.71 34.09 33.61 33.46 32.93 32.55 32.16 31.90 31.47 31.15 31.66 31.48 31.25
MSLP
1012.98 1012.80 1012.86 1012.92 1014.10 1014.25 1013.58 1013.11 1012.43 1011.69 1011.28 1010.66 1010.38 1010.17 1009.96 1009.89 1009.91 1010.65 1010.53 1010.78 1010.89 1010.83 1011.44 1011.59 1011.90 1012.48 1013.06 1013.55 1013.91 1014.20 1014.47 1014.82 1015.09 1015.25 1015.39 1015.51 1015.77 1015.91 1016.03 1016.15 1016.37 1016.56 1016.67 1016.65 1016.59 1016.51 1016.55 1016.69 1016.81
1013.06 1012.86 1013.11 1013.80 1014.31 1014.32 1013.59 1012.71 1012.16 1011.47 1010.95 1010.75 1010.34 1010.17 1009.76 1009.73 1009.87 1010.20 1010.31 1010.80 1011.03 1011.08 1011.38 1011.75 1012.13 1012.38 1012.93 1013.54 1014.01 1014.27 1014.46 1014.71 1014.99 1015.26 1015.48 1015.65 1015.82 1016.00 1016.16 1016.28 1016.48 1016.65 1016.72 1016.82 1016.90 1016.90 1016.89 1016.97 1017.07
1013.16 1013.27 1013.85 1014.26 1014.48 1013.93 1013.39 1012.42 1011.90 1011.48 1010.88 1010.65 1010.36 1010.27 1009.87 1009.57 1009.94 1010.09 1009.98 1010.69 1010.89 1011.31 1011.77 1012.03 1012.30 1012.64 1012.97 1013.37 1013.89 1014.34 1014.63 1014.86 1015.09 1015.36 1015.57 1015.62 1015.87 1016.10 1016.31 1016.39 1016.57 1016.79 1016.94 1017.06 1017.10 1017.23 1017.25 1017.33 1017.39
1013.51 1013.91 1014.81 1014.80 1014.12 1013.77 1013.06 1012.30 1011.98 1011.58 1010.67 1010.50 1010.43 1010.30 1010.13 1009.69 1009.63 1010.13 1010.46 1010.70 1011.01 1011.31 1011.91 1012.29 1012.56 1012.74 1013.12 1013.45 1013.90 1014.29 1014.73 1015.05 1015.24 1015.43 1015.60 1015.75 1015.89 1016.02 1016.33 1016.50 1016.68 1017.06 1017.09 1017.16 1017.35 1017.40 1017.53 1017.54 1017.54
1014.08 1014.66 1014.88 1014.87 1014.03 1013.48 1012.83 1012.31 1011.94 1011.55 1011.27 1010.72 1010.50 1010.16 1010.05 1009.93 1010.05 1010.30 1010.61 1011.06 1010.81 1011.52 1011.77 1012.24 1012.63 1012.90 1013.19 1013.58 1013.92 1014.33 1014.67 1015.01 1015.30 1015.46 1015.64 1015.76 1016.01 1016.12 1016.26 1016.60 1016.85 1017.16 1017.25 1017.19 1017.43 1017.43 1017.54 1017.47 1017.47
1014.43 1014.97 1015.30 1014.70 1013.97 1013.46 1012.76 1012.13 1011.82 1011.56 1011.14 1010.69 1010.64 1010.27 1010.05 1010.01 1010.13 1010.47 1010.76 1011.01 1011.22 1011.40 1011.71 1012.17 1012.60 1012.96 1013.24 1013.52 1013.92 1014.29 1014.63 1014.89 1015.20 1015.45 1015.64 1015.82 1015.98 1016.05 1016.21 1016.53 1016.88 1017.19 1017.23 1017.23 1017.40 1017.45 1017.44 1017.42 1017.42
1014.45 1015.01 1015.04 1014.65 1013.93 1013.53 1012.46 1012.06 1011.74 1011.37 1011.12 1010.62 1010.40 1010.28 1010.14 1009.99 1010.00 1010.40 1010.84 1011.30 1011.46 1011.55 1011.80 1012.09 1012.41 1012.90 1013.30 1013.55 1013.86 1014.24 1014.58 1014.88 1015.16 1015.38 1015.56 1015.80 1016.05 1016.04 1016.06 1016.56 1016.89 1017.11 1017.08 1017.26 1017.32 1017.38 1017.36 1017.41 1017.28
1014.77 1014.85 1014.90 1014.50 1014.00 1013.12 1012.26 1011.97 1011.39 1011.27 1010.85 1010.59 1010.38 1010.26 1010.16 1010.01 1010.29 1010.70 1011.03 1011.43 1011.72 1011.96 1012.19 1012.19 1012.43 1012.77 1013.12 1013.43 1013.84 1014.21 1014.55 1014.90 1015.16 1015.41 1015.60 1015.78 1016.13 1016.28 1016.44 1016.70 1016.97 1017.09 1017.06 1017.19 1017.23 1017.26 1017.31 1017.28 1017.30
1014.88 1015.04 1014.50 1014.20 1014.02 1013.18 1012.56 1012.20 1011.54 1011.24 1011.05 1010.74 1010.40 1010.29 1010.55 1010.64 1010.72 1010.96 1011.22 1011.46 1011.69 1012.02 1012.16 1012.27 1012.56 1012.73 1013.08 1013.34 1013.76 1014.18 1014.59 1014.95 1015.20 1015.44 1015.74 1015.90 1016.10 1016.36 1016.60 1016.85 1017.01 1017.11 1017.05 1017.17 1017.24 1017.23 1017.22 1017.17 1017.16
1014.91 1015.00 1014.16 1013.73 1013.53 1013.13 1012.73 1012.43 1012.00 1011.62 1011.34 1010.95 1010.59 1010.45 1010.59 1010.79 1010.96 1010.70 1010.81 1010.99 1011.30 1011.60 1011.98 1012.21 1012.49 1012.61 1012.94 1013.24 1013.67 1014.05 1014.46 1014.81 1015.12 1015.28 1015.66 1015.95 1016.13 1016.34 1016.67 1016.93 1017.06 1017.02 1017.08 1017.17 1017.23 1017.36 1017.28 1017.22 1017.03
1015.05 1014.66 1014.15 1013.74 1013.41 1013.26 1013.07 1012.69 1012.29 1011.86 1011.47 1010.92 1010.80 1010.67 1010.72 1010.79 1010.96 1010.91 1010.73 1010.66 1010.72 1011.17 1011.57 1011.92 1012.18 1012.37 1012.68 1012.93 1013.37 1013.90 1014.33 1014.72 1015.06 1015.35 1015.67 1015.92 1016.21 1016.31 1016.66 1016.78 1016.89 1016.84 1016.98 1016.94 1017.17 1017.23 1017.16 1017.22 1017.18
1015.30 1014.68 1014.49 1013.96 1013.59 1013.47 1013.21 1012.85 1012.42 1012.03 1011.14 1010.99 1010.91 1010.96 1010.93 1010.83 1010.75 1010.77 1010.65 1010.46 1010.54 1010.80 1010.88 1011.38 1011.78 1012.18 1012.43 1012.76 1013.11 1013.53 1013.95 1014.45 1014.86 1015.18 1015.57 1015.74 1016.05 1016.22 1016.48 1016.58 1016.92 1016.90 1016.93 1016.92 1017.09 1017.22 1017.47 1017.52 1017.69
1015.47 1014.94 1014.58 1014.21 1014.07 1013.72 1013.33 1012.67 1012.31 1011.65 1011.22 1011.06 1010.98 1011.01 1010.76 1010.64 1010.46 1010.33 1010.29 1010.36 1010.42 1010.35 1010.58 1010.97 1011.45 1011.78 1012.05 1012.50 1012.86 1013.29 1013.57 1014.03 1014.55 1015.01 1015.32 1015.58 1015.87 1016.05 1016.30 1016.51 1016.84 1016.84 1017.11 1017.18 1017.46 1017.61 1017.70 1017.86 1017.81
1015.69 1015.38 1014.93 1014.41 1014.00 1013.67 1013.29 1012.38 1012.47 1011.08 1010.94 1010.82 1010.85 1010.59 1010.35 1010.25 1009.99 1009.94 1009.92 1009.73 1009.98 1009.74 1009.85 1010.37 1010.75 1011.26 1011.57 1011.98 1012.31 1012.83 1013.19 1013.60 1014.16 1014.71 1015.11 1015.36 1015.62 1015.87 1016.26 1016.75 1017.09 1017.34 1017.58 1017.67 1017.73 1017.93 1017.98 1018.12 1017.87
1015.79 1015.86 1015.15 1014.40 1013.86 1013.61 1013.11 1012.11 1011.21 1010.85 1010.88 1010.50 1010.32 1010.16 1009.85 1009.51 1009.53 1009.52 1009.35 1009.31 1009.28 1009.31 1009.34 1009.74 1009.99 1010.49 1010.99 1011.45 1011.84 1012.22 1012.78 1013.28 1013.85 1014.27 1014.71 1015.08 1015.54 1015.88 1016.34 1016.70 1017.12 1017.64 1017.75 1017.89 1018.04 1018.19 1018.29 1018.29 1018.15
1016.05 1016.02 1015.61 1014.25 1013.70 1013.25 1013.06 1010.94 1010.69 1010.30 1010.29 1009.92 1009.70 1009.49 1009.30 1008.81 1008.63 1008.79 1008.80 1008.98 1008.89 1009.11 1009.25 1009.34 1009.54 1009.74 1010.25 1010.77 1011.36 1011.87 1012.38 1012.86 1013.53 1013.98 1014.41 1014.99 1015.51 1015.92 1016.52 1017.10 1017.46 1017.78 1017.99 1018.20 1018.41 1018.52 1018.55 1018.66 1018.43
1016.35 1016.11 1015.85 1014.95 1013.85 1013.46 1013.10 1011.44 1010.68 1010.27 1010.18 1009.89 1009.66 1009.37 1009.13 1008.76 1008.34 1008.14 1008.25 1008.52 1008.61 1008.73 1008.77 1008.92 1009.15 1009.36 1009.77 1010.42 1011.06 1011.58 1012.11 1012.70 1013.46 1013.99 1014.50 1015.12 1015.74 1016.24 1016.79 1017.48 1017.93 1017.91 1018.29 1018.47 1018.63 1018.92 1018.90 1018.92 1018.53
1016.55 1016.67 1016.24 1015.53 1014.56 1014.00 1013.24 1011.52 1011.08 1010.57 1010.11 1009.62 1009.44 1009.17 1008.88 1008.62 1008.22 1007.97 1007.73 1007.98 1008.22 1008.39 1008.51 1008.68 1008.96 1009.34 1009.71 1010.19 1011.07 1011.84 1012.57 1013.22 1013.84 1014.30 1014.77 1015.33 1016.03 1016.61 1017.28 1017.79 1018.22 1018.21 1018.21 1018.81 1018.99 1019.14 1019.27 1019.32 1018.99
1016.69 1016.76 1016.43 1015.80 1015.19 1014.69 1013.10 1011.19 1010.76 1010.30 1009.74 1009.46 1009.02 1008.58 1008.24 1008.01 1007.80 1007.58 1007.47 1007.51 1007.69 1008.02 1008.33 1008.56 1008.86 1009.22 1009.60 1009.97 1010.79 1011.96 1012.73 1013.61 1014.39 1014.81 1015.23 1015.75 1016.31 1017.16 1017.41 1018.09 1018.19 1018.35 1018.64 1019.15 1019.24 1019.36 1019.45 1019.57 1019.23
1016.76 1016.72 1016.27 1015.72 1015.13 1014.85 1013.41 1009.89 1010.09 1009.58 1008.37 1008.00 1007.77 1007.56 1007.51 1007.30 1007.29 1007.09 1007.08 1007.09 1007.38 1007.51 1008.09 1008.48 1008.74 1009.16 1009.35 1009.69 1010.52 1011.65 1012.88 1014.21 1014.74 1015.44 1015.87 1016.58 1017.12 1017.37 1017.70 1017.92 1018.34 1018.66 1019.09 1019.55 1019.63 1019.56 1019.66 1019.88 1019.88
1016.55 1016.45 1016.39 1016.17 1015.40 1014.60 1013.58 1009.14 1007.96 1006.87 1006.79 1006.83 1006.80 1006.54 1006.45 1006.30 1006.21 1006.29 1006.55 1006.76 1006.76 1007.28 1007.74 1008.18 1008.54 1009.12 1009.35 1009.94 1010.67 1012.24 1013.57 1014.66 1015.38 1016.09 1016.68 1017.37 1017.26 1017.56 1017.93 1018.29 1018.49 1019.04 1019.44 1019.81 1020.07 1019.95 1019.86 1020.06 1020.22
1016.12 1015.77 1015.83 1015.94 1015.95 1014.76 1013.81 1009.96 1007.73 1006.96 1006.33 1006.09 1005.85 1005.40 1005.21 1005.25 1005.43 1005.35 1005.54 1006.10 1006.45 1006.52 1007.37 1007.77 1008.50 1009.09 1009.45 1009.89 1010.33 1011.08 1012.16 1013.75 1015.00 1016.08 1016.86 1017.57 1017.73 1017.93 1018.29 1018.53 1018.85 1019.31 1019.67 1020.14 1020.21 1020.34 1020.36 1020.29 1020.39
1015.54 1015.34 1015.58 1015.67 1015.51 1015.01 1013.63 1013.06 1006.39 1006.90 1005.80 1005.39 1004.78 1004.13 1004.04 1003.97 1004.09 1004.25 1004.43 1004.92 1005.47 1006.14 1006.92 1007.40 1008.34 1009.10 1009.44 1009.84 1010.24 1011.16 1012.57 1013.99 1015.17 1016.40 1016.95 1017.75 1018.29 1018.33 1018.58 1018.90 1019.17 1019.60 1019.97 1020.27 1020.43 1020.61 1020.64 1020.67 1020.72
1015.16 1015.49 1015.52 1015.55 1015.34 1013.77 1011.94 1011.88 1006.02 1005.36 1003.99 1003.63 1003.31 1003.36 1003.45 1003.50 1003.34 1003.41 1003.87 1004.50 1005.13 1005.90 1006.68 1007.34 1008.16 1009.08 1009.65 1010.08 1010.59 1011.21 1012.21 1013.82 1015.26 1016.37 1017.22 1017.81 1018.43 1018.78 1018.96 1019.13 1019.54 1019.91 1020.20 1020.40 1020.59 1020.75 1020.76 1020.88 1020.97
1014.97 1015.51 1015.66 1015.43 1014.64 1012.31 1010.61 1010.54 1005.54 1003.88 1003.83 1003.60 1003.49 1003.19 1002.99 1002.88 1003.11 1003.30 1003.76 1004.31 1005.08 1005.69 1006.46 1007.17 1007.98 1009.03 1009.70 1010.32 1011.00 1011.64 1012.65 1013.64 1014.69 1016.09 1016.84 1017.62 1018.44 1018.92 1019.24 1019.43 1019.81 1020.11 1020.34 1020.57 1020.75 1020.73 1020.84 1021.06 1021.05
1014.06 1014.55 1014.60 1013.91 1013.22 1011.80 1010.59 1007.83 1004.76 1003.67 1003.52 1003.51 1002.90 1002.60 1002.48 1002.51 1002.73 1003.02 1003.07 1003.70 1004.52 1005.29 1006.01 1006.72 1007.85 1008.94 1009.86 1010.55 1011.25 1012.18 1013.16 1014.09 1015.19 1016.21 1016.98 1017.67 1018.20 1018.81 1019.35 1019.67 1019.89 1020.32 1020.50 1020.71 1020.80 1020.75 1020.92 1021.06 1021.05
1013.66 1013.61 1013.09 1013.26 1012.40 1011.62 1008.76 1005.87 1004.18 1002.86 1002.98 1003.07 1002.87 1002.45 1002.23 1001.92 1002.07 1002.34 1002.99 1003.41 1004.15 1004.95 1005.43 1006.11 1007.45 1008.83 1009.92 1010.88 1011.60 1012.70 1013.62 1014.47 1015.60 1016.56 1017.25 1017.79 1018.42 1018.88 1019.45 1019.75 1020.01 1020.40 1020.68 1020.72 1020.79 1020.84 1020.88 1020.95 1020.98
1012.77 1012.83 1013.14 1012.99 1011.57 1009.75 1007.01 1005.57 1003.18 1002.40 1002.37 1002.92 1002.83 1002.07 1001.84 1001.30 1001.47 1002.20 1002.47 1003.19 1004.26 1005.02 1005.68 1006.45 1007.47 1008.76 1010.11 1011.25 1012.06 1013.00 1014.01 1015.11 1016.07 1016.82 1017.51 1017.89 1018.42 1018.92 1019.49 1019.95 1020.14 1020.50 1020.72 1020.70 1020.74 1020.78 1020.85 1020.86 1020.88
1012.34 1012.28 1012.01 1011.60 1010.32 1008.46 1006.65 1003.73 1002.27 1002.03 1002.08 1002.98 1002.82 1002.24 1001.99 1001.41 1001.11 1001.74 1002.77 1003.44 1004.41 1005.49 1006.22 1007.01 1007.84 1009.10 1010.43 1011.60 1012.56 1013.53 1014.68 1015.58 1016.39 1017.24 1017.79 1018.11 1018.59 1019.18 1019.68 1020.08 1020.33 1020.53 1020.69 1020.76 1020.76 1020.80 1020.84 1020.84 1020.78
1010.48 1010.03 1010.49 1010.01 1008.55 1007.30 1006.28 1002.46 1001.77 1001.83 1002.20 1002.70 1002.58 1002.45 1002.26 1001.75 1001.71 1002.34 1002.99 1003.86 1004.85 1006.00 1006.89 1007.59 1008.51 1009.62 1010.83 1012.11 1013.13 1014.21 1015.01 1015.90 1016.82 1017.62 1018.04 1018.48 1018.91 1019.43 1019.89 1020.21 1020.44 1020.64 1020.74 1020.75 1020.79 1020.77 1020.74 1020.68 1020.48
Wind_Speed
7 7 1 4 1 2 2 4 2 2 1 1 3 3 2 1 3 2 2 10 3 14 13 15 15 16 16 15 14 12 10 8 7 6 6 7 7 6 3 4 5 5 5 6 7 8 10 11 10
4 3 4 3 2 1 3 3 4 2 3 7 1 2 1 1 1 1 5 9 6 13 13 13 14 18 16 15 13 11 10 9 7 6 6 6 5 6 5 5 4 4 4 4 4 5 6 7 8
1 4 2 3 3 6 4 4 3 4 8 3 2 2 2 2 3 2 3 10 11 13 10 10 15 16 16 16 14 11 10 9 8 9 8 7 10 7 6 5 5 5 5 3 3 4 4 4 4
2 3 4 2 9 5 5 1 2 6 3 1 1 4 2 2 1 1 7 11 12 13 10 11 13 14 15 15 14 12 10 9 9 9 7 6 3 7 7 6 6 4 4 4 3 3 3 4 4
3 2 2 3 8 3 4 4 3 3 3 5 2 2 2 0 2 4 11 10 14 12 11 12 12 12 15 15 14 13 11 9 8 9 8 6 2 6 9 7 5 3 3 4 3 2 1 2 4
3 2 2 10 8 3 5 5 2 2 3 4 3 1 3 1 4 7 9 11 10 13 12 11 12 12 15 15 14 13 11 10 8 8 8 6 5 2 8 9 6 3 2 1 2 3 4 4 5
5 3 5 4 4 5 5 4 4 5 4 5 2 2 2 3 4 9 7 7 8 9 11 11 12 12 12 13 13 12 11 9 9 8 8 4 4 4 9 9 6 3 1 1 3 4 5 5 5
4 3 5 6 9 9 2 4 2 4 3 2 3 4 2 1 6 8 7 6 5 7 9 10 10 10 10 12 12 11 10 9 8 7 7 6 4 7 7 7 3 2 1 2 4 5 5 5 6
2 2 6 7 8 6 2 2 1 1 1 3 2 2 3 2 7 7 5 5 5 6 9 9 9 10 9 10 10 11 10 9 9 7 6 6 3 3 2 3 1 2 3 4 5 5 5 5 3
3 4 8 6 5 3 2 0 2 2 3 3 3 2 5 2 5 9 9 9 9 9 9 9 10 11 10 8 9 9 8 7 6 6 6 4 3 2 1 2 3 3 4 4 4 5 5 4 3
4 6 3 3 2 1 2 4 2 2 5 7 5 4 5 0 4 6 7 8 10 8 8 11 11 10 10 10 7 5 5 5 4 6 5 5 3 3 1 0 1 1 1 1 2 3 3 5 5
2 6 5 3 3 4 6 2 5 5 8 1 4 4 5 9 7 7 9 9 9 9 11 12 12 10 10 6 7 8 7 6 5 5 6 4 3 3 2 1 1 1 1 2 2 3 5 6 7
3 3 4 4 6 5 5 12 13 12 11 9 10 9 13 11 11 9 9 8 6 9 10 11 13 12 11 9 8 7 8 7 6 6 6 5 4 4 3 3 3 4 3 4 4 4 5 5 5
1 4 6 7 8 6 10 15 6 11 12 16 12 15 14 10 12 9 8 10 10 10 10 11 14 15 13 12 12 9 8 8 7 6 6 7 5 5 5 5 4 4 4 4 4 5 4 4 5
2 5 7 9 7 8 3 14 15 18 14 14 13 12 13 14 13 13 12 11 10 10 7 10 13 15 16 15 12 9 8 8 7 6 8 7 5 6 6 5 5 4 4 6 5 5 4 4 4
3 2 5 3 2 7 11 16 8 10 13 20 20 18 17 21 19 15 12 11 10 8 9 7 9 15 16 14 11 9 8 8 6 5 5 8 8 8 7 5 5 5 4 4 5 4 4 4 5
2 4 5 7 1 4 11 7 2 3 4 7 9 13 14 16 18 15 11 10 12 9 9 8 10 14 15 13 10 9 10 7 6 6 6 9 10 9 8 5 5 6 5 5 4 5 4 5 6
5 5 4 5 3 6 14 19 16 15 12 17 13 12 12 12 16 15 12 8 9 8 6 6 7 11 13 10 9 7 7 7 5 6 7 9 7 10 9 6 7 6 7 5 5 6 5 5 7
2 2 9 9 9 12 13 20 17 16 16 16 17 17 15 14 14 13 10 9 7 6 7 8 10 12 11 10 11 8 7 6 7 5 9 9 9 9 10 6 8 7 8 6 5 3 6 6 7
8 12 15 10 11 9 13 29 18 18 22 20 20 18 18 17 14 13 12 8 9 8 9 9 10 14 11 9 7 6 7 6 6 5 9 8 10 10 9 9 8 8 7 7 7 5 2 3 6
7 13 12 13 10 12 16 27 16 13 19 20 20 22 21 20 19 17 12 12 9 11 12 10 11 12 11 13 12 11 10 7 5 6 6 4 10 10 10 10 9 8 6 6 5 5 5 3 4
14 8 12 13 7 7 2 15 7 10 14 14 13 16 18 21 19 19 15 12 12 13 10 11 12 12 12 14 14 19 11 11 6 6 7 6 8 10 10 10 10 9 6 6 5 4 4 2 4
6 4 6 7 8 10 13 8 9 1 6 10 11 15 17 19 20 21 18 16 13 11 12 11 12 12 13 13 15 12 13 9 9 8 12 9 7 9 10 9 9 8 6 6 6 5 5 3 2
2 3 8 8 5 11 12 12 21 12 12 10 10 13 11 14 17 18 12 11 10 10 11 12 14 11 12 12 13 15 18 17 12 10 8 7 7 7 9 9 8 7 6 6 5 4 5 4 3
8 3 2 4 6 8 6 11 22 3 9 6 12 11 12 11 9 10 11 12 12 14 14 13 15 13 13 14 14 16 15 16 16 12 10 11 8 6 7 8 7 6 6 5 4 4 4 3 2
11 10 6 8 6 3 3 12 10 6 12 15 18 13 13 9 7 11 14 13 15 16 16 16 16 15 14 14 15 13 14 9 9 9 9 8 8 8 8 8 7 6 6 4 4 3 2 2 2
6 12 14 8 10 8 9 14 19 21 14 8 12 14 14 11 10 12 11 13 15 15 17 18 18 15 15 14 13 13 12 13 12 12 11 9 10 8 8 8 7 6 5 4 4 2 3 2 2
6 1 5 8 6 9 6 10 15 5 10 6 10 11 15 12 9 9 13 14 12 13 13 15 17 17 15 14 13 13 15 14 13 12 12 11 10 10 9 7 6 5 4 4 4 3 2 2 3
10 12 8 4 6 6 7 10 7 12 6 5 8 8 10 11 10 11 9 11 13 13 14 15 16 17 15 14 15 15 14 14 12 11 11 10 10 9 8 6 6 5 4 4 3 3 2 4 5
15 12 18 10 9 7 10 20 6 7 7 3 9 9 8 5 5 9 12 14 15 14 14 15 15 16 14 15 15 14 14 14 12 11 10 10 10 8 7 6 5 4 4 3 3 3 4 5 6
Wind_Direction
331 333 39 43 46 43 249 251 262 288 291 237 292 228 223 266 173 223 8 186 161 156 163 165 152 143 140 143 144 142 139 133 123 123 123 117 113 105 104 93 91 92 52 32 39 46 60 76 87
332 346 45 81 114 217 253 239 208 225 264 302 262 234 271 259 157 228 141 187 171 159 162 165 150 144 146 146 145 143 140 137 130 125 125 121 125 122 103 108 77 60 44 53 30 38 50 52 56
125 36 78 108 160 207 223 217 191 295 299 227 262 271 190 213 200 231 113 161 152 156 165 159 149 149 151 150 151 149 146 144 145 140 154 131 138 134 124 115 98 77 63 56 49 40 46 47 33
39 29 71 201 226 233 214 245 238 340 328 43 13 265 262 286 78 192 144 150 150 153 164 158 155 155 155 154 155 154 156 158 157 158 174 179 166 159 146 129 113 92 87 73 65 56 39 39 28
37 62 146 224 247 246 245 253 267 290 289 297 356 276 248 206 10 139 149 157 148 164 164 171 164 164 160 159 160 161 163 164 168 171 179 221 163 215 167 152 135 117 96 80 61 65 5 341 323
84 101 163 228 238 228 258 248 270 234 261 285 259 288 261 188 168 155 155 159 159 163 166 176 171 168 166 165 165 167 169 168 170 178 184 212 266 222 176 158 156 159 130 79 5 345 326 321 317
140 134 201 228 244 259 235 208 234 263 264 266 184 221 278 230 179 149 151 155 158 166 170 178 181 179 173 171 169 171 172 171 173 177 180 194 357 324 187 157 162 177 157 309 321 322 321 310 311
122 149 165 222 230 256 232 194 195 181 271 317 188 227 274 50 154 143 137 145 157 172 185 185 183 184 185 180 169 171 169 166 168 175 168 130 62 41 112 131 158 205 319 314 314 317 311 317 328
154 163 219 223 174 226 242 197 306 313 293 317 254 246 343 57 132 133 136 162 175 191 194 190 190 189 186 180 180 172 171 171 172 170 154 145 136 88 76 55 1 327 331 334 326 330 336 347 2
168 201 221 193 189 216 297 234 338 330 334 297 323 12 9 142 194 170 180 191 198 200 196 193 198 196 188 181 182 183 180 184 180 169 171 169 162 129 28 1 345 326 325 338 340 341 357 352 2
168 232 198 215 180 118 278 291 256 218 264 225 256 303 347 33 233 224 218 206 211 198 196 198 199 199 193 192 176 178 180 177 177 170 171 167 156 128 143 204 296 255 186 271 337 341 19 41 44
196 258 248 268 284 267 249 252 271 235 244 294 243 310 303 305 286 245 239 222 207 203 207 198 197 196 195 198 183 184 182 180 177 178 174 169 159 149 157 102 40 31 44 61 61 70 65 56 44
209 251 269 283 304 264 262 245 250 247 249 254 276 277 276 277 270 264 255 255 230 228 219 207 198 198 193 187 188 184 190 183 179 175 180 171 170 163 146 118 93 83 75 77 78 66 60 45 31
248 273 270 277 268 259 257 261 215 239 241 247 242 249 258 250 261 277 255 255 232 238 223 209 205 198 194 193 189 187 189 183 176 177 179 181 178 156 135 117 96 76 74 65 65 60 53 44 27
230 300 295 246 232 234 246 262 241 249 239 241 238 243 252 254 260 250 251 252 245 242 240 210 207 196 194 194 188 183 186 180 176 173 178 177 153 142 126 118 106 87 80 79 68 66 53 33 13
239 237 278 295 233 244 187 256 268 269 228 239 242 244 246 252 254 248 243 236 250 259 256 243 207 194 193 191 184 178 177 176 171 159 148 136 132 128 113 100 95 99 83 83 68 42 54 19 0
217 253 231 300 34 309 204 271 307 9 1 286 267 260 254 254 255 258 246 227 250 256 254 235 204 193 185 181 171 170 164 158 145 125 120 124 119 116 104 99 106 101 91 74 72 57 43 17 351
192 219 237 246 317 340 298 273 272 281 291 289 284 268 263 258 258 260 255 230 241 246 236 226 198 179 169 153 137 124 123 107 119 114 112 115 110 112 109 111 116 103 85 73 74 76 59 26 351
112 237 264 265 292 305 267 275 273 276 269 266 266 273 269 257 260 262 255 251 236 222 208 196 173 169 156 150 144 143 138 128 107 96 108 108 108 121 116 121 103 85 81 74 57 82 49 29 2
252 266 275 287 254 264 288 283 279 266 261 251 250 250 247 251 254 255 252 231 222 210 199 188 179 173 166 156 133 124 127 100 100 93 92 107 108 111 114 108 99 95 95 79 60 53 93 47 18
225 240 262 264 293 273 281 278 266 249 250 253 251 252 249 243 240 245 233 224 209 205 198 184 172 170 151 132 114 105 100 103 104 104 96 99 108 106 107 104 101 97 100 87 79 65 66 66 57
261 206 238 259 281 283 126 294 285 275 271 267 258 245 238 240 238 237 224 217 208 207 182 169 165 157 147 149 141 152 148 149 144 123 114 101 103 106 106 103 103 101 97 102 92 76 72 90 45
233 181 214 232 240 283 232 257 280 86 261 262 246 239 232 228 229 231 221 211 207 175 178 159 155 159 156 154 151 147 131 115 118 118 114 108 103 105 106 107 104 104 102 100 98 92 79 70 94
98 239 262 270 237 250 233 202 279 260 253 256 252 253 247 240 233 232 227 209 182 157 156 153 153 152 152 147 144 140 135 135 130 131 129 118 119 111 106 105 104 106 108 102 99 99 88 81 88
166 145 280 254 208 248 193 193 240 271 287 266 281 276 262 249 233 219 185 179 171 167 160 152 152 150 148 143 137 136 133 136 134 138 136 136 132 124 118 114 115 109 106 99 102 85 79 69 43
188 198 195 223 217 255 214 237 243 227 256 265 269 265 271 244 230 227 197 183 176 168 161 153 150 144 143 136 128 123 125 124 125 131 139 134 130 126 127 119 112 112 103 98 82 71 61 48 19
168 211 228 287 259 280 236 270 285 270 256 266 281 284 257 239 218 204 193 179 170 169 165 155 145 139 138 131 123 123 124 126 133 131 128 128 124 125 122 117 114 106 98 80 68 52 36 15 7
183 74 176 202 239 236 235 254 238 310 303 300 310 335 300 248 204 200 178 168 168 159 146 138 136 131 128 126 125 123 124 124 127 127 129 127 120 119 119 114 108 104 89 68 45 28 16 349 336
196 235 229 263 224 248 268 255 194 232 181 253 300 337 311 272 207 177 163 147 139 135 134 129 125 125 122 122 123 121 123 123 121 123 125 120 119 119 116 114 106 96 80 52 31 5 328 320 310
215 226 216 230 227 229 254 262 208 158 157 318 337 324 328 312 153 142 136 132 131 128 130 128 125 121 120 122 120 119 119 120 120 123 120 121 117 114 116 112 102 91 72 34 1 330 315 307 315